QPF
0.01 0.02 0.02 0.01 0.01 0.01 0.01 0.01 0.02 0.03 0.02 0.03 0.03 0.03 0.04 0.04 0.03 0.04 0.04 0.05 0.05 0.05 0.04 0.03 0.04 0.05 0.06 0.08 0.08 0.08 0.09 0.10 0.09 0.07 0.06 0.06 0.06 0.06 0.07 0.07 0.08 0.09 0.08
0.01 0.01 0.01 0.01 0.02 0.02 0.02 0.02 0.03 0.03 0.03 0.03 0.04 0.03 0.03 0.03 0.03 0.03 0.03 0.04 0.05 0.06 0.05 0.04 0.04 0.05 0.06 0.05 0.06 0.07 0.08 0.08 0.09 0.10 0.10 0.09 0.08 0.08 0.08 0.07 0.07 0.07 0.07
0.01 0.01 0.01 0.01 0.02 0.02 0.02 0.02 0.02 0.03 0.03 0.03 0.02 0.02 0.02 0.02 0.02 0.02 0.02 0.02 0.03 0.03 0.03 0.03 0.03 0.04 0.04 0.04 0.04 0.06 0.07 0.07 0.07 0.08 0.08 0.09 0.09 0.08 0.07 0.07 0.07 0.06 0.05
0.02 0.02 0.02 0.03 0.04 0.04 0.03 0.04 0.04 0.03 0.02 0.02 0.02 0.03 0.02 0.02 0.01 0.01 0.01 0.01 0.01 0.01 0.01 0.02 0.02 0.03 0.04 0.03 0.03 0.04 0.04 0.05 0.06 0.06 0.05 0.05 0.07 0.07 0.06 0.07 0.06 0.05 0.04
0.02 0.02 0.02 0.03 0.05 0.06 0.05 0.05 0.04 0.05 0.03 0.02 0.02 0.02 0.01 0.01 0.01 0.01 0.01 0.01 0.01 0.01 0.01 0.01 0.01 0.01 0.02 0.03 0.02 0.03 0.03 0.04 0.04 0.04 0.04 0.04 0.05 0.05 0.06 0.06 0.05 0.06 0.05
0.03 0.02 0.02 0.03 0.04 0.04 0.04 0.04 0.04 0.03 0.03 0.02 0.01 0.01 0.00 0.00 0.00 0.01 0.01 0.02 0.03 0.03 0.02 0.02 0.01 0.01 0.01 0.01 0.02 0.03 0.02 0.01 0.02 0.02 0.03 0.03 0.03 0.04 0.05 0.05 0.05 0.04 0.04
0.02 0.02 0.03 0.03 0.03 0.03 0.03 0.04 0.03 0.02 0.01 0.01 0.01 0.01 0.01 0.01 0.01 0.01 0.01 0.02 0.03 0.03 0.03 0.03 0.02 0.01 0.01 0.01 0.01 0.02 0.03 0.02 0.02 0.02 0.02 0.02 0.03 0.03 0.04 0.04 0.05 0.04 0.05
0.02 0.02 0.03 0.05 0.06 0.05 0.04 0.02 0.01 0.01 0.01 0.01 0.01 0.01 0.01 0.01 0.01 0.01 0.01 0.02 0.03 0.02 0.03 0.03 0.02 0.02 0.02 0.02 0.02 0.02 0.02 0.02 0.02 0.02 0.01 0.01 0.02 0.02 0.03 0.03 0.03 0.03 0.04
0.01 0.02 0.02 0.03 0.04 0.03 0.02 0.02 0.02 0.01 0.02 0.02 0.01 0.01 0.01 0.01 0.01 0.01 0.01 0.02 0.02 0.02 0.02 0.02 0.02 0.02 0.03 0.03 0.03 0.02 0.02 0.01 0.01 0.01 0.01 0.01 0.01 0.01 0.02 0.02 0.02 0.02 0.02
0.01 0.02 0.02 0.04 0.05 0.04 0.03 0.03 0.03 0.02 0.02 0.01 0.01 0.01 0.01 0.01 0.01 0.01 0.01 0.01 0.01 0.01 0.01 0.01 0.01 0.01 0.01 0.02 0.04 0.04 0.04 0.03 0.02 0.01 0.01 0.01 0.01 0.01 0.02 0.03 0.03 0.03 0.03
0.05 0.08 0.08 0.09 0.08 0.07 0.05 0.04 0.03 0.03 0.02 0.01 0.01 0.01 0.02 0.02 0.02 0.02 0.01 0.01 0.01 0.01 0.01 0.01 0.01 0.01 0.01 0.01 0.01 0.01 0.02 0.02 0.02 0.02 0.02 0.01 0.01 0.01 0.02 0.03 0.04 0.03 0.03
0.05 0.09 0.09 0.10 0.10 0.07 0.05 0.03 0.03 0.03 0.02 0.01 0.01 0.02 0.02 0.02 0.02 0.02 0.02 0.02 0.02 0.02 0.02 0.01 0.01 0.02 0.02 0.02 0.03 0.03 0.03 0.03 0.02 0.03 0.03 0.03 0.03 0.05 0.05 0.05 0.05 0.06 0.04
0.06 0.08 0.09 0.11 0.14 0.10 0.06 0.04 0.03 0.02 0.02 0.02 0.02 0.02 0.03 0.03 0.03 0.02 0.02 0.02 0.02 0.02 0.02 0.02 0.02 0.02 0.02 0.03 0.03 0.04 0.04 0.04 0.04 0.05 0.05 0.05 0.05 0.05 0.06 0.06 0.06 0.06 0.05
0.06 0.07 0.09 0.09 0.09 0.09 0.07 0.06 0.05 0.03 0.03 0.02 0.02 0.03 0.04 0.03 0.03 0.03 0.03 0.02 0.02 0.01 0.01 0.01 0.01 0.01 0.02 0.02 0.02 0.03 0.03 0.04 0.05 0.06 0.07 0.07 0.07 0.07 0.08 0.06 0.05 0.06 0.07
0.05 0.05 0.06 0.08 0.10 0.10 0.07 0.07 0.06 0.04 0.04 0.04 0.03 0.03 0.03 0.02 0.02 0.03 0.02 0.01 0.01 0.01 0.01 0.01 0.01 0.01 0.02 0.02 0.02 0.02 0.02 0.03 0.05 0.06 0.08 0.08 0.05 0.03 0.03 0.04 0.06 0.08 0.07
0.02 0.02 0.02 0.03 0.04 0.05 0.05 0.05 0.04 0.03 0.03 0.02 0.02 0.02 0.02 0.02 0.02 0.01 0.01 0.01 0.01 0.01 0.01 0.02 0.01 0.01 0.01 0.01 0.02 0.02 0.01 0.01 0.02 0.02 0.03 0.03 0.02 0.02 0.02 0.02 0.02 0.03 0.04
0.02 0.02 0.02 0.03 0.04 0.05 0.05 0.05 0.04 0.03 0.03 0.02 0.02 0.02 0.02 0.02 0.01 0.01 0.01 0.01 0.01 0.01 0.01 0.01 0.01 0.01 0.01 0.01 0.01 0.01 0.01 0.02 0.02 0.02 0.01 0.02 0.03 0.03 0.02 0.02 0.01 0.01 0.02
0.01 0.02 0.03 0.03 0.04 0.03 0.03 0.03 0.03 0.02 0.02 0.02 0.02 0.02 0.02 0.01 0.01 0.01 0.01 0.01 0.01 0.01 0.01 0.02 0.02 0.02 0.02 0.02 0.02 0.02 0.03 0.03 0.02 0.02 0.02 0.02 0.01 0.01 0.01 0.01 0.01 0.02 0.02
0.01 0.02 0.03 0.03 0.03 0.02 0.02 0.02 0.03 0.02 0.02 0.02 0.02 0.02 0.02 0.02 0.02 0.02 0.02 0.01 0.02 0.02 0.02 0.02 0.02 0.03 0.03 0.02 0.03 0.04 0.04 0.04 0.03 0.02 0.01 0.01 0.01 0.01 0.01 0.01 0.01 0.01 0.02
0.02 0.02 0.02 0.02 0.02 0.02 0.03 0.03 0.04 0.03 0.03 0.03 0.03 0.03 0.02 0.02 0.01 0.02 0.02 0.02 0.03 0.03 0.03 0.03 0.04 0.05 0.05 0.04 0.04 0.03 0.03 0.04 0.03 0.02 0.01 0.01 0.01 0.02 0.01 0.01 0.01 0.01 0.02
0.02 0.02 0.02 0.02 0.03 0.03 0.04 0.04 0.04 0.04 0.03 0.04 0.03 0.04 0.04 0.03 0.03 0.02 0.02 0.02 0.03 0.03 0.03 0.03 0.03 0.04 0.04 0.04 0.05 0.04 0.04 0.03 0.02 0.02 0.02 0.01 0.02 0.02 0.01 0.01 0.01 0.01 0.01
0.02 0.02 0.03 0.02 0.02 0.03 0.03 0.03 0.04 0.04 0.03 0.03 0.02 0.03 0.05 0.05 0.04 0.03 0.02 0.03 0.03 0.04 0.04 0.03 0.03 0.04 0.05 0.05 0.05 0.05 0.04 0.04 0.03 0.02 0.02 0.01 0.01 0.01 0.01 0.01 0.01 0.02 0.02
0.05 0.04 0.04 0.03 0.03 0.03 0.03 0.03 0.03 0.03 0.04 0.03 0.04 0.04 0.04 0.05 0.05 0.04 0.04 0.04 0.04 0.04 0.03 0.03 0.03 0.04 0.04 0.04 0.04 0.03 0.03 0.03 0.03 0.02 0.02 0.02 0.02 0.02 0.02 0.01 0.01 0.02 0.02
0.11 0.12 0.10 0.06 0.04 0.04 0.04 0.04 0.04 0.04 0.04 0.05 0.05 0.04 0.04 0.05 0.05 0.05 0.05 0.05 0.04 0.03 0.03 0.02 0.02 0.02 0.02 0.03 0.03 0.04 0.04 0.03 0.03 0.03 0.03 0.03 0.03 0.02 0.02 0.01 0.01 0.02 0.02
0.04 0.08 0.11 0.12 0.10 0.08 0.06 0.05 0.04 0.04 0.04 0.04 0.03 0.04 0.04 0.04 0.04 0.04 0.03 0.03 0.03 0.03 0.03 0.02 0.02 0.02 0.02 0.03 0.03 0.03 0.03 0.04 0.04 0.04 0.03 0.03 0.03 0.02 0.02 0.02 0.02 0.02 0.02
0.01 0.02 0.03 0.04 0.06 0.07 0.08 0.08 0.07 0.06 0.06 0.05 0.05 0.04 0.04 0.03 0.03 0.03 0.02 0.02 0.02 0.02 0.02 0.02 0.02 0.02 0.03 0.02 0.02 0.03 0.03 0.04 0.04 0.04 0.03 0.03 0.03 0.02 0.02 0.02 0.03 0.03 0.03
MSLP
1012.51 1012.75 1012.96 1013.13 1013.26 1013.34 1013.40 1013.44 1013.49 1013.55 1013.63 1013.75 1013.88 1014.02 1014.16 1014.30 1014.42 1014.53 1014.65 1014.79 1014.95 1015.13 1015.33 1015.53 1015.70 1015.81 1015.85 1015.79 1015.64 1015.41 1015.12 1014.80 1014.49 1014.20 1013.96 1013.76 1013.59 1013.45 1013.31 1013.16 1012.99 1012.81 1012.63
1011.98 1012.19 1012.37 1012.52 1012.65 1012.76 1012.85 1012.94 1013.04 1013.17 1013.31 1013.48 1013.66 1013.84 1014.02 1014.18 1014.33 1014.47 1014.62 1014.78 1014.96 1015.17 1015.39 1015.60 1015.79 1015.92 1015.99 1015.96 1015.85 1015.67 1015.44 1015.18 1014.91 1014.66 1014.43 1014.23 1014.04 1013.83 1013.61 1013.35 1013.07 1012.76 1012.46
1011.47 1011.61 1011.74 1011.86 1011.97 1012.09 1012.21 1012.35 1012.52 1012.72 1012.94 1013.18 1013.43 1013.67 1013.90 1014.11 1014.30 1014.48 1014.66 1014.85 1015.06 1015.28 1015.52 1015.74 1015.94 1016.09 1016.18 1016.19 1016.12 1015.99 1015.81 1015.60 1015.39 1015.18 1014.97 1014.76 1014.54 1014.28 1013.99 1013.63 1013.24 1012.81 1012.38
1011.00 1011.06 1011.12 1011.19 1011.28 1011.40 1011.55 1011.73 1011.96 1012.24 1012.54 1012.87 1013.20 1013.52 1013.82 1014.09 1014.34 1014.57 1014.79 1015.00 1015.23 1015.47 1015.71 1015.94 1016.15 1016.31 1016.41 1016.45 1016.42 1016.34 1016.21 1016.05 1015.88 1015.70 1015.51 1015.30 1015.05 1014.76 1014.40 1013.98 1013.49 1012.97 1012.43
1010.61 1010.58 1010.56 1010.57 1010.63 1010.73 1010.90 1011.13 1011.42 1011.76 1012.15 1012.56 1012.98 1013.39 1013.76 1014.11 1014.42 1014.70 1014.95 1015.20 1015.45 1015.70 1015.95 1016.18 1016.39 1016.56 1016.68 1016.74 1016.74 1016.68 1016.59 1016.47 1016.33 1016.17 1015.99 1015.78 1015.52 1015.20 1014.81 1014.34 1013.81 1013.22 1012.61
1010.27 1010.15 1010.06 1010.01 1010.04 1010.13 1010.31 1010.57 1010.91 1011.31 1011.77 1012.26 1012.76 1013.25 1013.70 1014.11 1014.48 1014.82 1015.12 1015.40 1015.67 1015.94 1016.19 1016.43 1016.64 1016.81 1016.94 1017.01 1017.03 1017.00 1016.93 1016.83 1016.70 1016.55 1016.37 1016.15 1015.88 1015.55 1015.15 1014.67 1014.12 1013.51 1012.87
1009.94 1009.74 1009.60 1009.51 1009.51 1009.59 1009.78 1010.06 1010.43 1010.89 1011.40 1011.95 1012.51 1013.06 1013.58 1014.06 1014.49 1014.87 1015.22 1015.54 1015.84 1016.12 1016.38 1016.63 1016.85 1017.03 1017.16 1017.24 1017.27 1017.24 1017.18 1017.07 1016.94 1016.78 1016.59 1016.36 1016.09 1015.76 1015.36 1014.90 1014.37 1013.79 1013.16
1009.57 1009.33 1009.15 1009.04 1009.02 1009.10 1009.29 1009.59 1009.98 1010.47 1011.01 1011.60 1012.20 1012.80 1013.36 1013.89 1014.37 1014.80 1015.20 1015.55 1015.89 1016.19 1016.48 1016.74 1016.97 1017.15 1017.29 1017.38 1017.40 1017.38 1017.30 1017.19 1017.03 1016.84 1016.63 1016.38 1016.10 1015.77 1015.40 1014.98 1014.50 1013.97 1013.39
1009.12 1008.86 1008.67 1008.56 1008.55 1008.64 1008.84 1009.15 1009.55 1010.04 1010.60 1011.20 1011.82 1012.44 1013.04 1013.60 1014.12 1014.59 1015.03 1015.43 1015.79 1016.13 1016.44 1016.72 1016.96 1017.16 1017.31 1017.39 1017.42 1017.38 1017.29 1017.14 1016.95 1016.73 1016.48 1016.20 1015.91 1015.59 1015.24 1014.86 1014.45 1013.99 1013.49
1008.60 1008.34 1008.16 1008.07 1008.08 1008.19 1008.41 1008.72 1009.13 1009.62 1010.17 1010.77 1011.39 1012.02 1012.63 1013.21 1013.75 1014.26 1014.73 1015.16 1015.56 1015.93 1016.27 1016.56 1016.82 1017.03 1017.18 1017.27 1017.28 1017.23 1017.11 1016.94 1016.71 1016.45 1016.15 1015.85 1015.53 1015.21 1014.89 1014.55 1014.21 1013.83 1013.41
1008.04 1007.80 1007.66 1007.60 1007.65 1007.79 1008.02 1008.34 1008.75 1009.23 1009.77 1010.35 1010.96 1011.58 1012.19 1012.78 1013.34 1013.87 1014.36 1014.82 1015.24 1015.63 1015.97 1016.28 1016.55 1016.76 1016.91 1016.99 1016.99 1016.93 1016.79 1016.58 1016.32 1016.02 1015.69 1015.35 1015.01 1014.68 1014.37 1014.08 1013.78 1013.47 1013.13
1007.52 1007.32 1007.21 1007.20 1007.28 1007.46 1007.71 1008.04 1008.45 1008.92 1009.44 1010.01 1010.60 1011.20 1011.81 1012.40 1012.96 1013.50 1014.00 1014.47 1014.89 1015.27 1015.61 1015.91 1016.16 1016.36 1016.49 1016.56 1016.55 1016.47 1016.31 1016.08 1015.80 1015.47 1015.11 1014.75 1014.39 1014.06 1013.75 1013.47 1013.22 1012.96 1012.68
1007.15 1006.98 1006.91 1006.94 1007.06 1007.27 1007.54 1007.89 1008.30 1008.76 1009.27 1009.81 1010.39 1010.98 1011.57 1012.15 1012.71 1013.24 1013.73 1014.17 1014.57 1014.93 1015.23 1015.49 1015.70 1015.86 1015.96 1016.00 1015.97 1015.88 1015.71 1015.47 1015.18 1014.84 1014.48 1014.10 1013.74 1013.39 1013.09 1012.81 1012.57 1012.34 1012.10
1007.02 1006.88 1006.84 1006.90 1007.05 1007.28 1007.57 1007.92 1008.33 1008.79 1009.29 1009.82 1010.38 1010.96 1011.54 1012.10 1012.64 1013.14 1013.59 1014.00 1014.34 1014.63 1014.87 1015.06 1015.20 1015.30 1015.35 1015.35 1015.30 1015.19 1015.02 1014.79 1014.51 1014.18 1013.83 1013.46 1013.10 1012.75 1012.44 1012.16 1011.92 1011.69 1011.45
1007.19 1007.06 1007.04 1007.12 1007.28 1007.52 1007.82 1008.18 1008.58 1009.03 1009.52 1010.05 1010.60 1011.15 1011.71 1012.25 1012.75 1013.21 1013.61 1013.94 1014.20 1014.40 1014.54 1014.63 1014.68 1014.70 1014.68 1014.63 1014.55 1014.43 1014.27 1014.06 1013.82 1013.53 1013.20 1012.86 1012.52 1012.18 1011.87 1011.58 1011.31 1011.07 1010.81
1007.67 1007.54 1007.52 1007.60 1007.76 1007.99 1008.29 1008.63 1009.03 1009.47 1009.95 1010.46 1010.99 1011.52 1012.05 1012.55 1013.01 1013.40 1013.72 1013.96 1014.12 1014.21 1014.23 1014.21 1014.15 1014.07 1013.97 1013.87 1013.76 1013.64 1013.50 1013.34 1013.14 1012.90 1012.64 1012.34 1012.03 1011.71 1011.40 1011.10 1010.81 1010.52 1010.24
1008.37 1008.24 1008.21 1008.27 1008.41 1008.62 1008.89 1009.22 1009.59 1010.01 1010.47 1010.95 1011.45 1011.96 1012.44 1012.89 1013.28 1013.59 1013.83 1013.96 1014.01 1013.98 1013.88 1013.74 1013.58 1013.41 1013.24 1013.10 1012.97 1012.86 1012.75 1012.63 1012.49 1012.33 1012.13 1011.90 1011.63 1011.34 1011.04 1010.72 1010.40 1010.08 1009.75
1009.17 1009.03 1008.98 1009.02 1009.12 1009.30 1009.54 1009.83 1010.16 1010.55 1010.96 1011.41 1011.87 1012.32 1012.75 1013.13 1013.44 1013.67 1013.81 1013.84 1013.78 1013.64 1013.44 1013.20 1012.95 1012.70 1012.49 1012.32 1012.18 1012.09 1012.02 1011.96 1011.90 1011.81 1011.68 1011.51 1011.30 1011.05 1010.75 1010.43 1010.09 1009.73 1009.35
1009.94 1009.78 1009.71 1009.70 1009.77 1009.91 1010.10 1010.34 1010.63 1010.96 1011.32 1011.71 1012.11 1012.49 1012.84 1013.15 1013.37 1013.51 1013.55 1013.50 1013.35 1013.12 1012.84 1012.53 1012.23 1011.94 1011.71 1011.53 1011.41 1011.35 1011.33 1011.33 1011.33 1011.32 1011.26 1011.16 1011.00 1010.78 1010.50 1010.18 1009.82 1009.42 1009.00
1010.52 1010.35 1010.25 1010.21 1010.24 1010.32 1010.46 1010.65 1010.88 1011.15 1011.45 1011.76 1012.08 1012.38 1012.64 1012.85 1012.99 1013.04 1013.00 1012.87 1012.66 1012.38 1012.06 1011.73 1011.41 1011.12 1010.89 1010.74 1010.65 1010.63 1010.66 1010.72 1010.79 1010.83 1010.84 1010.79 1010.67 1010.49 1010.23 1009.91 1009.54 1009.12 1008.68
1010.83 1010.65 1010.52 1010.46 1010.45 1010.49 1010.58 1010.71 1010.88 1011.07 1011.29 1011.52 1011.74 1011.95 1012.11 1012.23 1012.28 1012.26 1012.16 1011.98 1011.74 1011.45 1011.13 1010.80 1010.51 1010.25 1010.07 1009.95 1009.91 1009.94 1010.02 1010.13 1010.24 1010.34 1010.39 1010.38 1010.29 1010.13 1009.89 1009.57 1009.20 1008.78 1008.32
1010.85 1010.66 1010.52 1010.43 1010.39 1010.39 1010.43 1010.51 1010.62 1010.74 1010.87 1011.01 1011.14 1011.24 1011.31 1011.34 1011.32 1011.23 1011.09 1010.90 1010.65 1010.38 1010.09 1009.82 1009.58 1009.39 1009.25 1009.20 1009.21 1009.28 1009.40 1009.54 1009.68 1009.80 1009.88 1009.89 1009.83 1009.68 1009.45 1009.15 1008.78 1008.36 1007.91
1010.64 1010.43 1010.28 1010.17 1010.11 1010.09 1010.09 1010.12 1010.17 1010.23 1010.28 1010.33 1010.36 1010.37 1010.36 1010.31 1010.22 1010.10 1009.93 1009.74 1009.52 1009.30 1009.07 1008.87 1008.70 1008.58 1008.51 1008.51 1008.56 1008.67 1008.80 1008.96 1009.11 1009.23 1009.31 1009.33 1009.27 1009.13 1008.91 1008.62 1008.26 1007.86 1007.42
1010.30 1010.09 1009.93 1009.81 1009.73 1009.69 1009.67 1009.66 1009.66 1009.65 1009.64 1009.61 1009.56 1009.49 1009.40 1009.29 1009.16 1009.02 1008.85 1008.68 1008.51 1008.34 1008.19 1008.06 1007.96 1007.91 1007.89 1007.93 1008.01 1008.12 1008.26 1008.40 1008.53 1008.63 1008.70 1008.70 1008.63 1008.49 1008.28 1008.00 1007.66 1007.28 1006.87
1009.97 1009.75 1009.59 1009.47 1009.38 1009.32 1009.28 1009.24 1009.20 1009.15 1009.07 1008.98 1008.87 1008.74 1008.60 1008.45 1008.30 1008.15 1008.00 1007.86 1007.73 1007.63 1007.53 1007.47 1007.43 1007.42 1007.44 1007.49 1007.56 1007.66 1007.76 1007.87 1007.96 1008.03 1008.06 1008.03 1007.95 1007.81 1007.60 1007.33 1007.01 1006.64 1006.26
1009.77 1009.55 1009.38 1009.25 1009.16 1009.09 1009.03 1008.97 1008.90 1008.80 1008.69 1008.55 1008.40 1008.24 1008.07 1007.90 1007.74 1007.60 1007.47 1007.37 1007.29 1007.23 1007.18 1007.16 1007.15 1007.15 1007.17 1007.20 1007.24 1007.29 1007.34 1007.38 1007.42 1007.43 1007.42 1007.36 1007.26 1007.11 1006.90 1006.64 1006.33 1005.99 1005.62
Thickness
5781 5777 5773 5769 5766 5763 5760 5757 5755 5753 5751 5749 5747 5745 5743 5741 5739 5737 5737 5735 5733 5731 5730 5729 5726 5726 5725 5724 5723 5721 5718 5715 5709 5708 5708 5705 5702 5700 5699 5697 5696 5694 5692
5781 5776 5771 5768 5764 5760 5757 5754 5752 5749 5748 5746 5744 5741 5739 5738 5736 5734 5733 5732 5730 5728 5726 5724 5723 5722 5719 5718 5716 5715 5713 5710 5706 5700 5699 5698 5695 5693 5691 5690 5690 5688 5686
5779 5774 5770 5766 5762 5758 5754 5751 5749 5747 5744 5742 5740 5738 5736 5734 5732 5731 5729 5728 5726 5724 5722 5720 5718 5716 5713 5712 5711 5710 5708 5706 5702 5698 5694 5692 5689 5687 5685 5683 5682 5680 5680
5777 5772 5767 5763 5760 5755 5751 5748 5745 5743 5741 5738 5736 5734 5732 5730 5729 5727 5725 5723 5721 5719 5717 5715 5713 5710 5708 5706 5705 5703 5701 5699 5695 5692 5689 5686 5683 5681 5679 5676 5674 5674 5673
5773 5768 5764 5761 5757 5752 5747 5743 5740 5738 5737 5734 5731 5729 5728 5727 5725 5722 5720 5718 5715 5713 5711 5709 5706 5702 5699 5699 5699 5697 5694 5692 5690 5687 5684 5681 5678 5674 5673 5671 5669 5667 5665
5768 5764 5761 5757 5753 5748 5743 5739 5736 5734 5731 5729 5727 5725 5723 5722 5716 5713 5712 5712 5710 5708 5705 5702 5700 5697 5693 5690 5688 5686 5685 5684 5683 5680 5679 5675 5671 5670 5668 5666 5664 5662 5658
5764 5760 5757 5753 5749 5745 5742 5737 5733 5729 5727 5724 5722 5720 5717 5712 5708 5706 5704 5705 5704 5701 5699 5697 5696 5693 5689 5687 5682 5679 5677 5674 5673 5673 5672 5669 5666 5665 5662 5661 5658 5656 5653
5760 5756 5753 5749 5745 5741 5737 5732 5729 5726 5722 5719 5717 5714 5711 5707 5702 5700 5698 5699 5698 5696 5694 5691 5688 5686 5684 5681 5679 5676 5673 5670 5667 5667 5665 5663 5661 5658 5656 5654 5652 5650 5648
5756 5752 5749 5745 5741 5737 5732 5728 5725 5722 5718 5715 5712 5709 5707 5703 5697 5694 5692 5695 5692 5690 5688 5685 5683 5680 5673 5671 5672 5669 5666 5663 5659 5657 5655 5653 5651 5649 5649 5649 5646 5645 5643
5752 5749 5745 5741 5736 5732 5728 5724 5721 5717 5713 5710 5707 5705 5703 5700 5693 5689 5686 5691 5688 5686 5682 5679 5674 5672 5666 5664 5665 5663 5660 5658 5656 5653 5649 5647 5645 5643 5641 5641 5641 5640 5638
5747 5743 5738 5735 5731 5727 5723 5719 5716 5713 5709 5706 5702 5700 5698 5695 5689 5685 5681 5683 5683 5680 5678 5675 5670 5663 5660 5657 5656 5657 5653 5651 5651 5649 5647 5645 5642 5639 5637 5635 5634 5633 5631
5739 5735 5732 5729 5728 5725 5719 5715 5711 5707 5703 5701 5698 5695 5694 5689 5684 5679 5675 5673 5672 5672 5670 5669 5664 5655 5652 5650 5649 5646 5644 5643 5646 5645 5643 5640 5638 5636 5633 5629 5626 5624 5622
5730 5727 5725 5723 5720 5718 5714 5709 5706 5703 5701 5698 5695 5693 5691 5687 5681 5674 5669 5666 5664 5664 5664 5657 5653 5648 5645 5644 5641 5639 5638 5640 5641 5639 5637 5635 5633 5629 5626 5622 5619 5616 5614
5722 5720 5718 5715 5713 5710 5707 5704 5702 5700 5697 5695 5692 5690 5687 5682 5679 5674 5669 5663 5657 5656 5655 5650 5644 5641 5639 5638 5637 5636 5636 5636 5635 5633 5631 5629 5627 5623 5621 5618 5615 5612 5610
5716 5713 5712 5710 5708 5703 5700 5697 5696 5694 5692 5687 5686 5684 5680 5677 5673 5667 5664 5661 5658 5654 5648 5646 5644 5642 5639 5638 5637 5635 5633 5631 5628 5627 5625 5623 5620 5618 5616 5613 5610 5608 5605
5709 5707 5706 5704 5701 5698 5694 5690 5685 5684 5680 5676 5674 5672 5672 5668 5663 5658 5653 5650 5646 5641 5639 5641 5640 5639 5637 5635 5633 5630 5628 5625 5623 5622 5619 5617 5615 5612 5610 5607 5604 5601 5598
5704 5702 5701 5698 5695 5691 5688 5685 5681 5675 5671 5668 5664 5661 5659 5657 5654 5649 5644 5640 5636 5632 5634 5637 5636 5635 5633 5632 5630 5627 5625 5621 5618 5616 5613 5611 5608 5606 5603 5600 5598 5595 5592
5697 5695 5693 5690 5688 5685 5682 5679 5678 5674 5670 5666 5658 5652 5649 5647 5644 5640 5636 5631 5631 5628 5633 5633 5632 5631 5630 5627 5625 5623 5620 5616 5613 5610 5608 5605 5603 5600 5597 5595 5592 5588 5586
5689 5688 5686 5684 5682 5679 5677 5674 5672 5669 5666 5662 5657 5650 5642 5639 5635 5632 5629 5631 5634 5632 5631 5630 5628 5627 5625 5621 5618 5615 5613 5610 5607 5604 5602 5599 5597 5594 5592 5591 5588 5581 5578
5681 5678 5676 5676 5675 5672 5670 5668 5665 5662 5659 5655 5652 5648 5641 5636 5634 5630 5626 5629 5630 5629 5627 5625 5623 5621 5618 5615 5611 5608 5606 5603 5600 5597 5596 5593 5591 5589 5587 5584 5582 5579 5575
5675 5672 5667 5667 5667 5665 5663 5660 5658 5654 5650 5647 5644 5641 5633 5633 5632 5630 5627 5625 5624 5623 5621 5619 5616 5613 5611 5607 5605 5602 5600 5598 5595 5592 5590 5587 5585 5582 5580 5578 5576 5573 5570
5668 5666 5664 5662 5659 5657 5654 5652 5649 5646 5643 5640 5637 5633 5625 5625 5626 5624 5622 5620 5618 5616 5614 5611 5609 5607 5604 5601 5598 5596 5593 5591 5588 5586 5584 5582 5579 5576 5574 5572 5569 5567 5564
5661 5659 5656 5654 5651 5646 5645 5645 5642 5639 5636 5633 5630 5626 5621 5619 5618 5616 5614 5613 5610 5608 5606 5603 5601 5600 5597 5594 5592 5589 5586 5584 5581 5578 5576 5574 5572 5570 5568 5566 5563 5560 5558
5653 5651 5649 5647 5644 5641 5639 5637 5634 5632 5629 5626 5623 5619 5616 5612 5610 5608 5605 5604 5602 5600 5598 5596 5593 5591 5588 5585 5583 5581 5578 5574 5572 5570 5568 5566 5564 5563 5561 5558 5556 5554 5552
5644 5643 5641 5639 5636 5634 5631 5629 5626 5623 5621 5618 5615 5612 5609 5605 5602 5599 5595 5593 5592 5591 5589 5587 5585 5583 5581 5578 5575 5573 5569 5565 5562 5560 5558 5557 5555 5554 5552 5550 5548 5546 5544
5636 5634 5633 5630 5627 5625 5623 5620 5617 5614 5611 5609 5605 5602 5599 5597 5594 5591 5588 5585 5584 5583 5581 5580 5578 5575 5573 5570 5566 5563 5559 5556 5553 5550 5548 5548 5547 5546 5543 5542 5540 5539 5537